| time (UTC) | temp C | wind direction | speed KPH | gust KPH | rain 1hr cm | rain 24hr cm | rain mn cm | humidity % | barometer mb |
| 20260506080629 | 12 | 115 | 0.0 | 11.3 | 0.00 | 0.43 | 0.10 | 92 | 1008.8 |
| 20260506080140 | 12 | 119 | 1.6 | 8.0 | 0.00 | 0.43 | 0.10 | 93 | 1008.9 |
| 20260506073130 | 12 | 308 | 0.0 | 22.5 | 0.00 | 0.43 | 0.10 | 93 | 1008.8 |
| 20260506073013 | 11 | 214 | 3.2 | 22.5 | 0.00 | 0.43 | 0.10 | 93 | 1008.9 |
| 20260506072238 | 12 | 217 | 3.2 | 8.0 | 0.00 | 0.43 | 0.10 | 94 | 1008.8 |
| 20260506072105 | 11 | 155 | 4.8 | 9.7 | 0.00 | 0.43 | 0.10 | 94 | 1008.8 |
| 20260506072014 | 11 | 226 | 8.0 | 9.7 | 0.00 | 0.43 | 0.10 | 94 | 1008.9 |
| 20260506071920 | 11 | 4 | 3.2 | 9.7 | 0.00 | 0.43 | 0.10 | 94 | 1009.0 |
| 20260506071805 | 11 | 263 | 1.6 | 9.7 | 0.00 | 0.43 | 0.00 | 95 | 1008.9 |
| 20260506062122 | 11 | 185 | 3.2 | 9.7 | 0.00 | 0.43 | 0.10 | 96 | 1008.6 |
| 20260506062040 | 11 | 80 | 0.0 | 9.7 | 0.00 | 0.43 | 0.10 | 96 | 1008.8 |
| 20260506061122 | 11 | 267 | 3.2 | 9.7 | 0.00 | 0.43 | 0.10 | 97 | 1008.7 |
| 20260506060622 | 11 | 146 | 0.0 | 9.7 | 0.00 | 0.43 | 0.10 | 97 | 1008.7 |
| 20260506060122 | 11 | 209 | 1.6 | 9.7 | 0.00 | 0.43 | 0.10 | 97 | 1008.7 |
| 20260506050639 | 10 | 225 | 4.8 | 6.4 | 0.00 | 0.43 | 0.10 | 98 | 1008.5 |
| 20260506050124 | 10 | 197 | 1.6 | 8.0 | 0.00 | 0.43 | 0.10 | 98 | 1008.7 |
| 20260506045121 | 10 | 144 | 3.2 | 9.7 | 0.00 | 0.43 | 0.10 | 98 | 1008.5 |
| 20260506044622 | 10 | 211 | 4.8 | 9.7 | 0.00 | 0.43 | 0.10 | 99 | 1008.6 |
| 20260506044122 | 10 | 213 | 3.2 | 6.4 | 0.00 | 0.43 | 0.10 | 98 | 1008.5 |
| 20260506043622 | 10 | 223 | 1.6 | 6.4 | 0.00 | 0.43 | 0.10 | 98 | 1008.6 |
| 20260506043323 | 10 | 103 | 0.0 | 6.4 | 0.00 | 0.43 | 0.10 | 98 | 1008.7 |
| 20260506043317 | 10 | 212 | 3.2 | 6.4 | 0.00 | 0.43 | 0.10 | 98 | 1008.8 |
| 20260506043253 | 10 | 193 | 3.2 | 6.4 | 0.00 | 0.43 | 0.10 | 98 | 1008.7 |
| 20260506042509 | 10 | 191 | 3.2 | 4.8 | 0.00 | 0.43 | 0.10 | 99 | 1008.6 |
| 20260506042333 | 10 | 184 | 1.6 | 6.4 | 0.00 | 0.43 | 0.10 | 98 | 1008.9 |
| 20260506041941 | 10 | 126 | 1.6 | 6.4 | 0.00 | 0.43 | 0.10 | 98 | 1008.7 |
| 20260506041826 | 10 | 94 | 0.0 | 6.4 | 0.00 | 0.43 | 0.00 | 98 | 1008.6 |
| 20260506035923 | 10 | 194 | 0.0 | 6.4 | 0.00 | 0.43 | 0.10 | 98 | 1008.9 |
| 20260506035122 | 10 | 289 | 0.0 | 6.4 | 0.00 | 0.43 | 0.10 | 98 | 1008.9 |
| 20260506034622 | 10 | 156 | 4.8 | 6.4 | 0.00 | 0.43 | 0.10 | 98 | 1009.1 |
| 20260506034122 | 10 | 233 | 3.2 | 9.7 | 0.00 | 0.43 | 0.10 | 98 | 1009.1 |
| 20260506033622 | 11 | 253 | 3.2 | 9.7 | 0.00 | 0.43 | 0.10 | 98 | 1008.9 |
| 20260506033122 | 11 | 216 | 3.2 | 8.0 | 0.00 | 0.43 | 0.10 | 98 | 1009.2 |
| 20260506032622 | 11 | 195 | 3.2 | 6.4 | 0.00 | 0.43 | 0.10 | 98 | 1009.0 |
| 20260506032507 | 11 | 216 | 0.0 | 6.4 | 0.00 | 0.43 | 0.10 | 98 | 1009.1 |
| 20260506031622 | 11 | 261 | 0.0 | 4.8 | 0.00 | 0.43 | 0.10 | 98 | 1008.9 |
| 20260506031127 | 11 | 211 | 0.0 | 4.8 | 0.00 | 0.43 | 0.10 | 98 | 1009.0 |
| 20260506030622 | 11 | 152 | 0.0 | 8.0 | 0.00 | 0.43 | 0.10 | 98 | 1009.0 |
| 20260506030138 | 11 | 140 | 0.0 | 8.0 | 0.00 | 0.43 | 0.10 | 98 | 1009.0 |
| 20260506025621 | 11 | 215 | 4.8 | 4.8 | 0.00 | 0.43 | 0.10 | 98 | 1009.2 |
| 20260506025135 | 11 | 143 | 0.0 | 9.7 | 0.00 | 0.43 | 0.10 | 98 | 1009.1 |
| 20260506025038 | 11 | 225 | 4.8 | 9.7 | 0.00 | 0.43 | 0.10 | 98 | 1009.2 |
| 20260506024121 | 11 | 119 | 4.8 | 6.4 | 0.00 | 0.43 | 0.10 | 98 | 1009.0 |
| 20260506023622 | 11 | 119 | 1.6 | 4.8 | 0.00 | 0.43 | 0.10 | 98 | 1009.2 |
| 20260506023122 | 11 | 175 | 1.6 | 6.4 | 0.00 | 0.43 | 0.10 | 98 | 1009.2 |
| 20260506022624 | 11 | 230 | 3.2 | 9.7 | 0.00 | 0.43 | 0.10 | 98 | 1009.1 |
| 20260506022124 | 11 | 150 | 3.2 | 9.7 | 0.00 | 0.43 | 0.10 | 98 | 1009.3 |
| 20260506021622 | 11 | 209 | 4.8 | 6.4 | 0.00 | 0.43 | 0.10 | 98 | 1009.4 |
| 20260506021122 | 11 | 173 | 0.0 | 8.0 | 0.00 | 0.43 | 0.10 | 98 | 1009.3 |
| 20260506021014 | 11 | 110 | 1.6 | 8.0 | 0.00 | 0.43 | 0.10 | 98 | 1009.2 |
| 20260506020122 | 11 | 220 | 4.8 | 6.4 | 0.00 | 0.43 | 0.10 | 98 | 1009.2 |
| 20260506015621 | 11 | 123 | 0.0 | 4.8 | 0.00 | 0.43 | 0.10 | 98 | 1009.0 |
| 20260506015124 | 11 | 184 | 1.6 | 4.8 | 0.00 | 0.43 | 0.10 | 98 | 1009.0 |
| 20260506014621 | 11 | 231 | 1.6 | 6.4 | 0.00 | 0.43 | 0.10 | 98 | 1008.9 |
| 20260506014122 | 11 | 238 | 0.0 | 6.4 | 0.00 | 0.43 | 0.10 | 98 | 1009.2 |
| 20260506013624 | 11 | 182 | 0.0 | 6.4 | 0.00 | 0.43 | 0.10 | 98 | 1009.2 |
| 20260506013122 | 11 | 128 | 0.0 | 12.9 | 0.00 | 0.43 | 0.10 | 98 | 1009.5 |
| 20260506012622 | 12 | 148 | 3.2 | 12.9 | 0.00 | 0.43 | 0.10 | 98 | 1009.6 |
| 20260506012341 | 12 | 214 | 0.0 | 4.8 | 0.08 | 0.43 | 0.10 | 98 | 1009.0 |
| 20260506012227 | 12 | 128 | 0.0 | 4.8 | 0.03 | 0.43 | 0.10 | 98 | 1009.4 |
| 20260506012124 | 12 | 217 | 0.0 | 6.4 | 0.05 | 0.43 | 0.10 | 98 | 1009.2 |
| 20260506012033 | 12 | 145 | 1.6 | 6.4 | 0.08 | 0.43 | 0.10 | 98 | 1009.3 |
| 20260506011942 | 12 | 231 | 1.6 | 3.2 | 0.08 | 0.43 | 0.10 | 98 | 1009.3 |
| 20260506011829 | 12 | 182 | 0.0 | 4.8 | 0.08 | 0.43 | 0.00 | 98 | 1009.5 |
| 20260506005300 | 12 | 244 | 3.2 | 8.0 | 0.08 | 0.43 | 0.10 | 98 | 1009.5 |
| 20260506005238 | 12 | 103 | 0.0 | 8.0 | 0.08 | 0.43 | 0.10 | 98 | 1009.5 |
| 20260506004154 | 12 | 99 | 1.6 | 6.4 | 0.10 | 0.43 | 0.10 | 98 | 1009.6 |
| 20260506003643 | 12 | 179 | 0.0 | 6.4 | 0.10 | 0.43 | 0.10 | 98 | 1009.7 |
| 20260506003441 | 12 | 140 | 0.0 | 16.1 | 0.10 | 0.43 | 0.10 | 98 | 1009.6 |
| 20260506002622 | 12 | 207 | 1.6 | 19.3 | 0.10 | 0.43 | 0.10 | 98 | 1009.7 |
| 20260506002436 | 12 | 32 | 6.4 | 19.3 | 0.08 | 0.41 | 0.08 | 98 | 1009.9 |
| 20260506001622 | 12 | 29 | 1.6 | 17.7 | 0.05 | 0.38 | 0.05 | 98 | 1009.9 |
| 20260506001118 | 12 | 216 | 3.2 | 16.1 | 0.03 | 0.36 | 0.03 | 98 | 1010.0 |
| 20260506000618 | 12 | 70 | 0.0 | 12.9 | 0.03 | 0.36 | 0.03 | 98 | 1009.9 |
| 20260506000120 | 12 | 261 | 3.2 | 4.8 | 0.03 | 0.36 | 0.03 | 98 | 1009.8 |
| 20260505235621 | 12 | 113 | 1.6 | 8.0 | 0.03 | 0.36 | 0.03 | 98 | 1009.8 |
| 20260505235231 | 12 | 209 | 4.8 | 6.4 | 0.03 | 0.36 | 0.00 | 98 | 1010.3 |
| 20260505235210 | 12 | 224 | 3.2 | 8.0 | 0.03 | 0.36 | 0.03 | 98 | 1010.0 |
| 20260505234123 | 12 | 193 | 0.0 | 8.0 | 0.00 | 0.33 | 0.00 | 98 | 1009.8 |
| 20260505233626 | 12 | 233 | 6.4 | 8.0 | 0.00 | 0.33 | 0.00 | 98 | 1010.0 |
| 20260505233131 | 12 | 248 | 0.0 | 8.0 | 0.00 | 0.33 | 0.00 | 98 | 1009.8 |
| 20260505233027 | 12 | 216 | 0.0 | 8.0 | 0.00 | 0.33 | 0.00 | 98 | 1010.2 |
| 20260505232118 | 12 | 121 | 1.6 | 6.4 | 0.00 | 0.33 | 0.00 | 98 | 1010.1 |
| 20260505232003 | 12 | 216 | 3.2 | 6.4 | 0.00 | 0.33 | 0.00 | 98 | 1010.2 |
| 20260505231121 | 12 | 163 | 0.0 | 6.4 | 0.00 | 0.33 | 0.00 | 98 | 1010.2 |
| 20260505231000 | 11 | 101 | 1.6 | 3.2 | 0.00 | 0.33 | 0.00 | 98 | 1010.0 |
| 20260505230118 | 11 | 145 | 0.0 | 3.2 | 0.00 | 0.33 | 0.00 | 98 | 1010.1 |
| 20260505225617 | 11 | 145 | 0.0 | 4.8 | 0.00 | 0.33 | 0.00 | 98 | 1010.1 |
| 20260505225120 | 11 | 134 | 0.0 | 4.8 | 0.00 | 0.33 | 0.00 | 98 | 1010.0 |
| 20260505224617 | 11 | 197 | 3.2 | 3.2 | 0.00 | 0.33 | 0.00 | 98 | 1010.1 |
| 20260505224118 | 11 | 126 | 0.0 | 3.2 | 0.00 | 0.33 | 0.00 | 98 | 1010.3 |
| 20260505223618 | 12 | 125 | 0.0 | 3.2 | 0.00 | 0.33 | 0.00 | 98 | 1010.2 |
| 20260505223129 | 12 | 211 | 3.2 | 3.2 | 0.00 | 0.33 | 0.00 | 98 | 1010.0 |
| 20260505222934 | 12 | 141 | 0.0 | 1.6 | 0.00 | 0.33 | 0.00 | 98 | 1010.3 |
| 20260505222925 | 12 | 145 | 0.0 | 6.4 | 0.00 | 0.33 | 0.00 | 98 | 1010.3 |
| 20260505222755 | 12 | 199 | 0.0 | 3.2 | 0.00 | 0.33 | 0.00 | 98 | 1010.3 |
| 20260505222621 | 12 | 139 | 0.0 | 3.2 | 0.00 | 0.33 | 0.00 | 98 | 1010.1 |
| 20260505222149 | 12 | 150 | 0.0 | 1.6 | 0.00 | 0.33 | 0.00 | 98 | 1010.1 |
| 20260505222058 | 12 | 135 | 0.0 | 6.4 | 0.00 | 0.33 | 0.00 | 98 | 1010.3 |
| 20260505215615 | 12 | 122 | 0.0 | 3.2 | 0.00 | 0.33 | 0.33 | 98 | 1010.4 |
| 20260505215116 | 12 | 124 | 0.0 | 4.8 | 0.00 | 0.33 | 0.33 | 98 | 1010.4 |
| 20260505214615 | 12 | 156 | 0.0 | 4.8 | 0.00 | 0.33 | 0.33 | 98 | 1010.5 |
| 20260505214118 | 12 | 219 | 1.6 | 6.4 | 0.00 | 0.33 | 0.33 | 98 | 1010.4 |
| 20260505213625 | 12 | 210 | 3.2 | 6.4 | 0.00 | 0.33 | 0.33 | 98 | 1010.3 |
| 20260505213116 | 12 | 280 | 1.6 | 4.8 | 0.00 | 0.33 | 0.33 | 98 | 1010.1 |
| 20260505212956 | 12 | 170 | 0.0 | 3.2 | 0.00 | 0.33 | 0.33 | 97 | 1010.3 |
| 20260505212951 | 12 | 106 | 3.2 | 6.4 | 0.00 | 0.33 | 0.33 | 97 | 1010.4 |
| 20260505212827 | 12 | 166 | 0.0 | 4.8 | 0.00 | 0.33 | 0.33 | 98 | 1010.1 |
| 20260505211127 | 12 | 127 | 0.0 | 6.4 | 0.00 | 0.33 | 0.33 | 97 | 1010.3 |
| 20260505210659 | 12 | 213 | 6.4 | 6.4 | 0.00 | 0.33 | 0.33 | 97 | 1010.1 |
| 20260505210246 | 12 | 45 | 0.0 | 3.2 | 0.00 | 0.33 | 0.33 | 97 | 1010.3 |
| 20260505205138 | 12 | 232 | 0.0 | 3.2 | 0.00 | 0.33 | 0.33 | 97 | 1010.3 |
| 20260505204916 | 12 | 266 | 3.2 | 3.2 | 0.00 | 0.33 | 0.33 | 97 | 1010.4 |
| 20260505204140 | 12 | 222 | 3.2 | 4.8 | 0.00 | 0.33 | 0.33 | 97 | 1010.2 |
| 20260505203638 | 12 | 271 | 0.0 | 4.8 | 0.00 | 0.33 | 0.33 | 97 | 1010.4 |
| 20260505203130 | 12 | 246 | 0.0 | 4.8 | 0.00 | 0.33 | 0.33 | 97 | 1010.2 |
| 20260505202621 | 12 | 103 | 0.0 | 3.2 | 0.00 | 0.33 | 0.33 | 97 | 1010.2 |
| 20260505202146 | 12 | 191 | 0.0 | 4.8 | 0.00 | 0.33 | 0.33 | 97 | 1010.1 |
| 20260505201624 | 12 | 65 | 0.0 | 4.8 | 0.00 | 0.33 | 0.33 | 97 | 1010.2 |
| 20260505201120 | 12 | 130 | 0.0 | 4.8 | 0.00 | 0.33 | 0.33 | 96 | 1010.1 |
| 20260505200621 | 12 | 220 | 0.0 | 3.2 | 0.00 | 0.33 | 0.33 | 96 | 1010.1 |
| 20260505200124 | 12 | 222 | 0.0 | 3.2 | 0.00 | 0.33 | 0.33 | 96 | 1010.0 |
| 20260505195616 | 12 | 188 | 0.0 | 3.2 | 0.03 | 0.33 | 0.28 | 96 | 1009.9 |
| 20260505195123 | 12 | 115 | 0.0 | 3.2 | 0.03 | 0.33 | 0.28 | 96 | 1010.1 |
| 20260505194616 | 12 | 10 | 3.2 | 4.8 | 0.03 | 0.33 | 0.28 | 96 | 1010.1 |
| 20260505194414 | 12 | 207 | 3.2 | 8.0 | 0.03 | 0.33 | 0.28 | 96 | 1010.1 |
| 20260505193616 | 12 | 191 | 0.0 | 8.0 | 0.03 | 0.33 | 0.28 | 96 | 1010.2 |
| 20260505193116 | 12 | 201 | 1.6 | 6.4 | 0.03 | 0.33 | 0.28 | 96 | 1010.1 |
| 20260505192625 | 12 | 167 | 1.6 | 4.8 | 0.03 | 0.33 | 0.28 | 96 | 1009.9 |
| 20260505192249 | 12 | 179 | 0.0 | 4.8 | 0.03 | 0.33 | 0.28 | 96 | 1009.9 |
| 20260505192031 | 13 | 179 | 0.0 | 4.8 | 0.03 | 0.33 | 0.28 | 95 | 1009.9 |
| 20260505191940 | 13 | 166 | 0.0 | 4.8 | 0.05 | 0.33 | 0.28 | 95 | 1009.9 |
| 20260505191847 | 13 | 214 | 0.0 | 3.2 | 0.05 | 0.33 | 0.28 | 95 | 1009.8 |
| 20260505191733 | 13 | 299 | 0.0 | 3.2 | 0.05 | 0.33 | 0.00 | 95 | 1009.9 |
| 20260505185607 | 13 | 141 | 0.0 | 6.4 | 0.03 | 0.30 | 0.30 | 95 | 1009.7 |
| 20260505185115 | 13 | 99 | 3.2 | 6.4 | 0.03 | 0.30 | 0.30 | 95 | 1009.9 |
| 20260505184606 | 13 | 139 | 0.0 | 3.2 | 0.03 | 0.30 | 0.30 | 95 | 1009.9 |
| 20260505184110 | 13 | 134 | 0.0 | 3.2 | 0.03 | 0.30 | 0.30 | 95 | 1009.9 |
| 20260505183612 | 13 | 145 | 0.0 | 3.2 | 0.03 | 0.30 | 0.30 | 95 | 1009.6 |
| 20260505183107 | 13 | 103 | 0.0 | 6.4 | 0.05 | 0.30 | 0.30 | 95 | 1009.8 |
| 20260505182607 | 13 | 101 | 1.6 | 6.4 | 0.05 | 0.30 | 0.30 | 95 | 1009.8 |
| 20260505182110 | 13 | 106 | 1.6 | 8.0 | 0.05 | 0.30 | 0.30 | 95 | 1009.9 |
| 20260505181606 | 13 | 83 | 0.0 | 8.0 | 0.05 | 0.30 | 0.30 | 95 | 1010.0 |
| 20260505181117 | 13 | 106 | 1.6 | 4.8 | 0.03 | 0.28 | 0.28 | 95 | 1010.0 |
| 20260505180607 | 13 | 50 | 0.0 | 3.2 | 0.03 | 0.28 | 0.28 | 95 | 1010.0 |
| 20260505180119 | 13 | 66 | 0.0 | 3.2 | 0.05 | 0.28 | 0.28 | 94 | 1009.9 |
| 20260505175806 | 13 | 122 | 0.0 | 3.2 | 0.05 | 0.28 | 0.28 | 94 | 1009.7 |
| 20260505175729 | 13 | 45 | 0.0 | 3.2 | 0.05 | 0.28 | 0.28 | 94 | 1009.7 |
| 20260505174607 | 13 | 134 | 0.0 | 3.2 | 0.05 | 0.28 | 0.28 | 93 | 1009.8 |
| 20260505174107 | 13 | 176 | 0.0 | 3.2 | 0.05 | 0.28 | 0.28 | 93 | 1010.1 |
| 20260505173607 | 13 | 122 | 0.0 | 3.2 | 0.05 | 0.28 | 0.28 | 93 | 1010.0 |
| 20260505173106 | 14 | 125 | 1.6 | 4.8 | 0.03 | 0.25 | 0.25 | 93 | 1010.0 |
| 20260505172607 | 14 | 101 | 3.2 | 4.8 | 0.03 | 0.25 | 0.25 | 93 | 1010.0 |
| 20260505172107 | 14 | 102 | 1.6 | 4.8 | 0.03 | 0.25 | 0.25 | 94 | 1010.1 |
| 20260505171618 | 14 | 86 | 1.6 | 4.8 | 0.03 | 0.25 | 0.25 | 93 | 1010.1 |
| 20260505171111 | 14 | 168 | 1.6 | 4.8 | 0.03 | 0.25 | 0.25 | 93 | 1010.2 |
| 20260505170607 | 14 | 113 | 3.2 | 4.8 | 0.03 | 0.25 | 0.25 | 93 | 1009.9 |
| 20260505170519 | 14 | 86 | 3.2 | 4.8 | 0.00 | 0.23 | 0.23 | 93 | 1010.0 |
| 20260505165948 | 14 | 69 | 3.2 | 4.8 | 0.00 | 0.23 | 0.23 | 93 | 1010.1 |
| 20260505165121 | 14 | 102 | 1.6 | 3.2 | 0.00 | 0.23 | 0.23 | 92 | 1010.1 |
| 20260505164700 | 14 | 57 | 3.2 | 3.2 | 0.00 | 0.23 | 0.23 | 92 | 1009.9 |
| 20260505163607 | 14 | 85 | 0.0 | 4.8 | 0.00 | 0.23 | 0.23 | 92 | 1010.0 |
| 20260505163217 | 14 | 90 | 1.6 | 3.2 | 0.00 | 0.23 | 0.23 | 91 | 1010.3 |
| 20260505163212 | 14 | 108 | 3.2 | 4.8 | 0.00 | 0.23 | 0.23 | 91 | 1010.2 |
| 20260505163154 | 14 | 96 | 0.0 | 4.8 | 0.00 | 0.23 | 0.23 | 92 | 1010.4 |
| 20260505162823 | 14 | 95 | 3.2 | 4.8 | 0.00 | 0.23 | 0.23 | 92 | 1010.3 |
| 20260505162700 | 14 | 115 | 0.0 | 4.8 | 0.00 | 0.23 | 0.23 | 91 | 1010.2 |
| 20260505162254 | 14 | 155 | 3.2 | 4.8 | 0.00 | 0.23 | 0.23 | 91 | 1010.2 |
| 20260505161825 | 14 | 97 | 3.2 | 3.2 | 0.00 | 0.23 | 0.00 | 91 | 1010.1 |
| 20260505153109 | 14 | 352 | 1.6 | 9.7 | 0.03 | 0.23 | 0.23 | 88 | 1010.3 |
| 20260505152611 | 15 | 22 | 4.8 | 9.7 | 0.03 | 0.23 | 0.23 | 89 | 1010.4 |
| 20260505152107 | 15 | 17 | 4.8 | 6.4 | 0.05 | 0.23 | 0.23 | 90 | 1010.5 |
| 20260505151606 | 15 | 306 | 4.8 | 6.4 | 0.05 | 0.23 | 0.23 | 90 | 1010.5 |
| 20260505151452 | 15 | 5 | 3.2 | 6.4 | 0.05 | 0.23 | 0.23 | 90 | 1010.8 |
| 20260505150606 | 15 | 22 | 0.0 | 3.2 | 0.05 | 0.23 | 0.23 | 90 | 1010.4 |
| 20260505150143 | 15 | 10 | 1.6 | 3.2 | 0.05 | 0.23 | 0.23 | 90 | 1010.8 |
| 20260505124616 | 15 | 209 | 1.6 | 4.8 | 0.10 | 0.10 | 0.10 | 88 | 1011.5 |
| 20260505124102 | 15 | 134 | 0.0 | 8.0 | 0.10 | 0.10 | 0.10 | 87 | 1011.5 |
| 20260505123602 | 15 | 219 | 3.2 | 8.0 | 0.08 | 0.08 | 0.08 | 88 | 1011.6 |
| 20260505123105 | 15 | 182 | 0.0 | 8.0 | 0.08 | 0.08 | 0.08 | 87 | 1011.8 |
| 20260505122602 | 15 | 149 | 3.2 | 6.4 | 0.08 | 0.08 | 0.08 | 88 | 1011.4 |
| 20260505122102 | 15 | 197 | 3.2 | 11.3 | 0.08 | 0.08 | 0.08 | 87 | 1011.5 |
| 20260505121610 | 15 | 170 | 1.6 | 11.3 | 0.05 | 0.05 | 0.05 | 87 | 1011.7 |
| 20260505121102 | 15 | 219 | 0.0 | 8.0 | 0.05 | 0.05 | 0.05 | 88 | 1011.6 |
| 20260505120604 | 15 | 346 | 0.0 | 8.0 | 0.05 | 0.05 | 0.05 | 88 | 1011.5 |
| 20260505120404 | 15 | 229 | 1.6 | 8.0 | 0.03 | 0.03 | 0.03 | 87 | 1011.6 |
| 20260505115603 | 15 | 157 | 1.6 | 6.4 | 0.03 | 0.03 | 0.03 | 86 | 1011.6 |
| 20260505115103 | 15 | 301 | 1.6 | 6.4 | 0.03 | 0.03 | 0.03 | 86 | 1011.5 |
| 20260505114900 | 15 | 107 | 0.0 | 6.4 | 0.00 | 0.00 | 0.00 | 85 | 1011.4 |
| 20260505114102 | 15 | 224 | 0.0 | 6.4 | 0.00 | 0.00 | 0.00 | 85 | 1011.8 |
| 20260505113618 | 15 | 174 | 0.0 | 4.8 | 0.00 | 0.00 | 0.00 | 85 | 1011.6 |
| 20260505113228 | 15 | 178 | 1.6 | 8.0 | 0.00 | 0.00 | 0.00 | 84 | 1011.8 |
| 20260505112113 | 15 | 236 | 4.8 | 8.0 | 0.00 | 0.00 | 0.00 | 85 | 1011.6 |
| 20260505111608 | 15 | 233 | 4.8 | 8.0 | 0.00 | 0.00 | 0.00 | 85 | 1011.6 |
| 20260505111104 | 15 | 216 | 3.2 | 8.0 | 0.00 | 0.00 | 0.00 | 86 | 1011.6 |
| 20260505111000 | 15 | 247 | 0.0 | 6.4 | 0.00 | 0.00 | 0.00 | 86 | 1011.7 |
| 20260505110524 | 15 | 111 | 0.0 | 6.4 | 0.00 | 0.00 | 0.00 | 86 | 1011.8 |
| 20260505102158 | 15 | 178 | 3.2 | 4.8 | 0.00 | 0.00 | 0.00 | 83 | 1012.1 |
| 20260505102109 | 14 | 66 | 0.0 | 4.8 | 0.00 | 0.00 | 0.00 | 84 | 1011.9 |
| 20260505101932 | 14 | 100 | 0.0 | 4.8 | 0.00 | 0.00 | 0.00 | 84 | 1012.4 |
| 20260505095056 | 14 | 83 | 3.2 | 6.4 | 0.00 | 0.00 | 0.00 | 84 | 1012.1 |
| 20260505094553 | 14 | 107 | 1.6 | 6.4 | 0.00 | 0.00 | 0.00 | 85 | 1012.3 |
| 20260505094053 | 14 | 273 | 0.0 | 9.7 | 0.00 | 0.00 | 0.00 | 85 | 1012.2 |
| 20260505093554 | 14 | 152 | 3.2 | 14.5 | 0.00 | 0.00 | 0.00 | 85 | 1012.2 |
| 20260505093054 | 14 | 274 | 1.6 | 14.5 | 0.00 | 0.00 | 0.00 | 85 | 1012.2 |
| 20260505092553 | 14 | 17 | 1.6 | 14.5 | 0.00 | 0.00 | 0.00 | 86 | 1012.3 |
| 20260505092053 | 14 | 73 | 3.2 | 8.0 | 0.00 | 0.00 | 0.00 | 87 | 1012.3 |
| 20260505091555 | 13 | 184 | 1.6 | 8.0 | 0.00 | 0.00 | 0.00 | 87 | 1012.2 |
| 20260505091059 | 13 | 298 | 1.6 | 8.0 | 0.00 | 0.00 | 0.00 | 88 | 1012.3 |
| 20260505090556 | 13 | 71 | 1.6 | 4.8 | 0.00 | 0.00 | 0.00 | 89 | 1012.4 |
| 20260505085553 | 13 | 216 | 3.2 | 3.2 | 0.00 | 0.00 | 0.00 | 89 | 1012.4 |
| 20260505085103 | 13 | 166 | 0.0 | 3.2 | 0.00 | 0.00 | 0.00 | 89 | 1012.4 |
| 20260505084553 | 13 | 134 | 0.0 | 1.6 | 0.00 | 0.00 | 0.00 | 89 | 1012.6 |
| 20260505084052 | 13 | 314 | 0.0 | 3.2 | 0.00 | 0.00 | 0.00 | 89 | 1012.5 |
| 20260505083552 | 13 | 145 | 0.0 | 3.2 | 0.00 | 0.00 | 0.00 | 87 | 1012.6 |
| 20260505083053 | 13 | 117 | 0.0 | 6.4 | 0.00 | 0.00 | 0.00 | 86 | 1012.6 |
| 20260505082559 | 13 | 199 | 3.2 | 9.7 | 0.00 | 0.00 | 0.00 | 84 | 1012.7 |
| 20260505082053 | 14 | 237 | 6.4 | 9.7 | 0.00 | 0.00 | 0.00 | 83 | 1012.5 |
| 20260505081553 | 14 | 227 | 3.2 | 11.3 | 0.00 | 0.00 | 0.00 | 83 | 1012.6 |